,,Stat6,,Stat2,,Stat8,,Stat9,,Stat10,,Wind1,,Wind1,
time,status,PA1M_AVG,status,PR1M_SUM,status,RH1M_AVG,status,SR1M_AVG,status,TA1M_AVG,status,W1dAve1m,status,W1sAve1m,
2009-01-14, 00:00:00,VALID,920.578,VALID,0,VALID,99.6785,VALID,-0.0169808,VALID,19.1056,VALID,160,VALID,0,
2009-01-14, 00:01:00,VALID,920.568,VALID,0,VALID,99.6887,VALID,-0.0169808,VALID,19.1118,VALID,150,VALID,0.0806641,
2009-01-14, 00:02:00,VALID,920.543,VALID,0,VALID,99.7065,VALID,0,VALID,19.1146,VALID,158,VALID,0.0736328,
2009-01-14, 00:03:00,VALID,920.522,VALID,0,VALID,99.7815,VALID,0,VALID,19.1311,VALID,154,VALID,0.0142663,
2009-01-14, 00:04:00,VALID,920.513,VALID,0,VALID,99.7294,VALID,0.0169808,VALID,19.1438,VALID,154,VALID,0,
2009-01-14, 00:05:00,VALID,920.502,VALID,0,VALID,99.6811,VALID,0.0169808,VALID,19.1436,VALID,153,VALID,0.00109012,
2009-01-14, 00:06:00,VALID,920.496,VALID,0,VALID,99.7243,VALID,-0.0169808,VALID,19.1243,VALID,173,VALID,0,
2009-01-14, 00:07:00,VALID,920.492,VALID,0,VALID,99.7383,VALID,0.0169808,VALID,19.1118,VALID,165,VALID,0,
2009-01-14, 00:08:00,VALID,920.517,VALID,0,VALID,99.793,VALID,-0.0339617,VALID,19.0754,VALID,164,VALID,0,
2009-01-14, 00:09:00,VALID,920.532,VALID,0,VALID,99.9868,VALID,-0.0169808,VALID,19.0687,VALID,156,VALID,0.201265,
2009-01-14, 00:10:00,VALID,920.55,VALID,0,VALID,100,VALID,-0.0169808,VALID,19.0752,VALID,163,VALID,0.0470567,
2009-01-14, 00:11:00,VALID,920.55,VALID,0,VALID,100,VALID,-0.0169808,VALID,19.0889,VALID,155,VALID,0.0400152,
2009-01-14, 00:12:00,VALID,920.551,VALID,0,VALID,100,VALID,0,VALID,19.0757,VALID,155,VALID,0.290777,
2009-01-14, 00:13:00,VALID,920.535,VALID,0,VALID,100,VALID,0,VALID,19.0659,VALID,137,VALID,0.075218,
2009-01-14, 00:14:00,VALID,920.521,VALID,0,VALID,100,VALID,0,VALID,19.1086,VALID,136,VALID,0.545878,
2009-01-14, 00:15:00,VALID,920.501,VALID,0,VALID,100,VALID,-0.0339617,VALID,19.1311,VALID,130,VALID,0.395952,
2009-01-14, 00:16:00,VALID,920.475,VALID,0,VALID,100,VALID,-0.0169808,VALID,19.1376,VALID,129,VALID,0.304071,
2009-01-14, 00:17:00,VALID,920.465,VALID,0,VALID,100,VALID,-0.0169808,VALID,19.1243,VALID,150,VALID,0.0664063,
2009-01-14, 00:18:00,VALID,920.459,VALID,0,VALID,100,VALID,-0.0339617,VALID,19.1308,VALID,142,VALID,0.168605,
2009-01-14, 00:19:00,VALID,920.439,VALID,0,VALID,100,VALID,-0.0339617,VALID,19.1311,VALID,155,VALID,0.0889137,
2009-01-14, 00:20:00,VALID,920.446,VALID,0,VALID,100,VALID,-0.0169808,VALID,19.1346,VALID,138,VALID,0.164742,
2009-01-14, 00:21:00,VALID,920.463,VALID,0,VALID,100,VALID,-0.0169808,VALID,19.1403,VALID,148,VALID,0.28032,
2009-01-14, 00:22:00,VALID,920.461,VALID,0,VALID,100,VALID,0,VALID,19.16,VALID,138,VALID,0.0318216,
2009-01-14, 00:23:00,VALID,920.466,VALID,0,VALID,100,VALID,-0.0339617,VALID,19.1633,VALID,141,VALID,0.065625,
2009-01-14, 00:24:00,VALID,920.452,VALID,0,VALID,100,VALID,0,VALID,19.1633,VALID,149,VALID,0.00390625,
2009-01-14, 00:25:00,VALID,920.465,VALID,0,VALID,100,VALID,0,VALID,19.1698,VALID,144,VALID,0.0168679,
2009-01-14, 00:26:00,VALID,920.468,VALID,0,VALID,100,VALID,-0.0339617,VALID,19.1603,VALID,143,VALID,0.000585938,
2009-01-14, 00:27:00,VALID,920.453,VALID,0,VALID,100,VALID,0,VALID,19.1508,VALID,163,VALID,0.000679348,
2009-01-14, 00:28:00,VALID,920.461,VALID,0,VALID,100,VALID,0,VALID,19.1246,VALID,164,VALID,0,
2009-01-14, 00:29:00,VALID,920.45,VALID,0,VALID,100,VALID,-0.0169808,VALID,19.1348,VALID,163,VALID,0,
2009-01-14, 00:30:00,VALID,920.443,VALID,0,VALID,100,VALID,0,VALID,19.1348,VALID,163,VALID,0,
2009-01-14, 00:31:00,VALID,920.436,VALID,0,VALID,100,VALID,-0.0169808,VALID,19.1248,VALID,163,VALID,0,
2009-01-14, 00:32:00,VALID,920.431,VALID,0,VALID,100,VALID,0,VALID,19.1114,VALID,163,VALID,0,
2009-01-14, 00:33:00,VALID,920.43,VALID,0,VALID,100,VALID,0.0339617,VALID,19.1049,VALID,164,VALID,0,
2009-01-14, 00:34:00,VALID,920.42,VALID,0,VALID,100,VALID,0,VALID,19.0954,VALID,164,VALID,0,
2009-01-14, 00:35:00,VALID,920.409,VALID,0,VALID,100,VALID,0.0169808,VALID,19.0824,VALID,164,VALID,0,
2009-01-14, 00:36:00,VALID,920.394,VALID,0,VALID,100,VALID,-0.0339617,VALID,19.0792,VALID,160,VALID,0.00173611,
2009-01-14, 00:37:00,VALID,920.393,VALID,0,VALID,100,VALID,0,VALID,19.1021,VALID,154,VALID,0.00443892,
2009-01-14, 00:38:00,VALID,920.385,VALID,0,VALID,100,VALID,-0.0169808,VALID,19.1046,VALID,153,VALID,0,
2009-01-14, 00:39:00,VALID,920.38,VALID,0,VALID,100,VALID,-0.0339617,VALID,19.1046,VALID,156,VALID,0,
2009-01-14, 00:40:00,VALID,920.372,VALID,0,VALID,100,VALID,-0.0169808,VALID,19.1144,VALID,156,VALID,0,
2009-01-14, 00:41:00,VALID,920.387,VALID,0,VALID,99.9456,VALID,-0.0169808,VALID,19.0984,VALID,162,VALID,0.00109012,
2009-01-14, 00:42:00,VALID,920.365,VALID,0,VALID,99.9224,VALID,-0.0169808,VALID,19.0722,VALID,172,VALID,0,
2009-01-14, 00:43:00,VALID,920.367,VALID,0,VALID,100,VALID,-0.0169808,VALID,19.0824,VALID,167,VALID,0,
2009-01-14, 00:44:00,VALID,920.362,VALID,0,VALID,99.9771,VALID,-0.0169808,VALID,19.0592,VALID,166,VALID,0,
2009-01-14, 00:45:00,VALID,920.339,VALID,0,VALID,99.9977,VALID,-0.0339617,VALID,19.05,VALID,164,VALID,0,
2009-01-14, 00:46:00,VALID,920.329,VALID,0,VALID,100,VALID,-0.0339617,VALID,19.0467,VALID,161,VALID,0,
2009-01-14, 00:47:00,VALID,920.329,VALID,0,VALID,100,VALID,-0.0339617,VALID,19.0465,VALID,162,VALID,0,
2009-01-14, 00:48:00,VALID,920.338,VALID,0,VALID,100,VALID,-0.0339617,VALID,19.0495,VALID,161,VALID,0,
2009-01-14, 00:49:00,VALID,920.332,VALID,0,VALID,100,VALID,-0.0339617,VALID,19.0497,VALID,161,VALID,0,
2009-01-14, 00:50:00,VALID,920.351,VALID,0,VALID,100,VALID,0,VALID,19.0629,VALID,161,VALID,0,
2009-01-14, 00:51:00,VALID,920.346,VALID,0,VALID,100,VALID,-0.0169808,VALID,19.036,VALID,147,VALID,0.0493608,
2009-01-14, 00:52:00,VALID,920.35,VALID,0,VALID,100,VALID,0,VALID,19.033,VALID,151,VALID,0.00334821,
2009-01-14, 00:53:00,VALID,920.335,VALID,0,VALID,100,VALID,0.101885,VALID,19.0253,VALID,141,VALID,0,
2009-01-14, 00:54:00,VALID,920.315,VALID,0,VALID,100,VALID,0.0679233,VALID,19.0161,VALID,145,VALID,0.00114329,
2009-01-14, 00:55:00,VALID,920.313,VALID,0,VALID,100,VALID,0.101885,VALID,18.9867,VALID,161,VALID,0.139205,
2009-01-14, 00:56:00,VALID,920.299,VALID,0,VALID,100,VALID,0.0849042,VALID,18.9864,VALID,149,VALID,0.0775923,
2009-01-14, 00:57:00,VALID,920.285,VALID,0,VALID,100,VALID,0.0849042,VALID,19.0061,VALID,149,VALID,0.000571646,
2009-01-14, 00:58:00,VALID,920.289,VALID,0,VALID,100,VALID,0.0509425,VALID,19.0159,VALID,142,VALID,0.000571646,
2009-01-14, 00:59:00,VALID,920.29,VALID,0,VALID,100,VALID,0.101885,VALID,19.0253,VALID,143,VALID,0,
2009-01-14, 01:00:00,VALID,920.291,VALID,0,VALID,100,VALID,0.0849042,VALID,19.0321,VALID,154,VALID,0.118459,
2009-01-14, 01:01:00,VALID,920.298,VALID,0,VALID,100,VALID,0.0679233,VALID,19.0418,VALID,156,VALID,0.00360577,
2009-01-14, 01:02:00,VALID,920.323,VALID,0,VALID,100,VALID,0.0849042,VALID,19.0647,VALID,156,VALID,0.00436047,
2009-01-14, 01:03:00,VALID,920.34,VALID,0,VALID,100,VALID,0.0679233,VALID,19.0742,VALID,155,VALID,0.0527344,
2009-01-14, 01:04:00,VALID,920.35,VALID,0,VALID,100,VALID,0.0679233,VALID,19.0807,VALID,173,VALID,0.144159,
2009-01-14, 01:05:00,VALID,920.353,VALID,0,VALID,100,VALID,0.0679233,VALID,19.1032,VALID,147,VALID,0.00502232,
2009-01-14, 01:06:00,VALID,920.347,VALID,0,VALID,100,VALID,0.0849042,VALID,19.1331,VALID,173,VALID,0.184411,
2009-01-14, 01:07:00,VALID,920.337,VALID,0,VALID,100,VALID,0.0849042,VALID,19.1361,VALID,174,VALID,0,
2009-01-14, 01:08:00,VALID,920.327,VALID,0,VALID,100,VALID,0.0849042,VALID,19.1426,VALID,162,VALID,0.0175305,
2009-01-14, 01:09:00,VALID,920.311,VALID,0,VALID,100,VALID,0.0679233,VALID,19.1296,VALID,144,VALID,0.396577,
2009-01-14, 01:10:00,VALID,920.303,VALID,0,VALID,100,VALID,0.0849042,VALID,19.1361,VALID,155,VALID,0.335156,
2009-01-14, 01:11:00,VALID,920.317,VALID,0,VALID,100,VALID,0.0849042,VALID,19.1528,VALID,180,VALID,0.101944,
2009-01-14, 01:12:00,VALID,920.315,VALID,0,VALID,100,VALID,0.0679233,VALID,19.1523,VALID,176,VALID,0.0554142,
2009-01-14, 01:13:00,VALID,920.309,VALID,0,VALID,100,VALID,0.0339617,VALID,19.1621,VALID,172,VALID,0.0327381,
2009-01-14, 01:14:00,VALID,920.282,VALID,0,VALID,100,VALID,0.0849042,VALID,19.1553,VALID,160,VALID,0.00400152,
2009-01-14, 01:15:00,VALID,920.254,VALID,0,VALID,100,VALID,0.0679233,VALID,19.169,VALID,163,VALID,0.00104167,
2009-01-14, 01:16:00,VALID,920.219,VALID,0,VALID,100,VALID,0.0679233,VALID,19.1753,VALID,156,VALID,0.178416,
2009-01-14, 01:17:00,VALID,920.192,VALID,0,VALID,100,VALID,0.0849042,VALID,19.1646,VALID,164,VALID,0.00609756,
2009-01-14, 01:18:00,VALID,920.164,VALID,0,VALID,100,VALID,0.101885,VALID,19.1815,VALID,154,VALID,0.230378,
2009-01-14, 01:19:00,VALID,920.152,VALID,0,VALID,100,VALID,0.0849042,VALID,19.1678,VALID,162,VALID,0.24673,
2009-01-14, 01:20:00,VALID,920.125,VALID,0,VALID,100,VALID,0.0849042,VALID,19.1586,VALID,155,VALID,0.498047,
2009-01-14, 01:21:00,VALID,920.118,VALID,0,VALID,100,VALID,0.0849042,VALID,19.1813,VALID,156,VALID,0.0564904,
2009-01-14, 01:22:00,VALID,920.088,VALID,0,VALID,100,VALID,0.0339617,VALID,19.1623,VALID,157,VALID,0.915625,
2009-01-14, 01:23:00,VALID,920.085,VALID,0,VALID,100,VALID,-0.152827,VALID,19.174,VALID,155,VALID,0.411395,
2009-01-14, 01:24:00,VALID,920.075,VALID,0,VALID,100,VALID,-0.101885,VALID,19.1737,VALID,152,VALID,0.556996,
2009-01-14, 01:25:00,VALID,920.071,VALID,0,VALID,100,VALID,-0.101885,VALID,19.1737,VALID,150,VALID,0.250186,
2009-01-14, 01:26:00,VALID,920.063,VALID,0,VALID,99.9809,VALID,-0.135847,VALID,19.1675,VALID,137,VALID,0.123471,
2009-01-14, 01:27:00,VALID,920.043,VALID,0,VALID,99.9977,VALID,-0.118866,VALID,19.161,VALID,144,VALID,0.528232,
2009-01-14, 01:28:00,VALID,920.043,VALID,0,VALID,99.9842,VALID,-0.152827,VALID,19.1779,VALID,144,VALID,0.315456,
2009-01-14, 01:29:00,VALID,920.034,VALID,0,VALID,99.9265,VALID,-0.118866,VALID,19.1812,VALID,140,VALID,0.197218,
2009-01-14, 01:30:00,VALID,920.015,VALID,0,VALID,99.8489,VALID,-0.152827,VALID,19.1904,VALID,139,VALID,0.0550595,
2009-01-14, 01:31:00,VALID,920.012,VALID,0,VALID,99.7803,VALID,-0.101885,VALID,19.1934,VALID,140,VALID,0.182958,
2009-01-14, 01:32:00,VALID,920.019,VALID,0,VALID,99.7116,VALID,-0.101885,VALID,19.1802,VALID,150,VALID,0.142933,
2009-01-14, 01:33:00,VALID,920.005,VALID,0,VALID,99.7714,VALID,-0.118866,VALID,19.1775,VALID,153,VALID,0.26669,
2009-01-14, 01:34:00,VALID,920.012,VALID,0,VALID,99.7714,VALID,-0.135847,VALID,19.1812,VALID,123,VALID,0,
2009-01-14, 01:35:00,VALID,919.996,VALID,0,VALID,99.7472,VALID,-0.101885,VALID,19.1772,VALID,143,VALID,0.000363372,
2009-01-14, 01:36:00,VALID,919.989,VALID,0,VALID,99.723,VALID,-0.101885,VALID,19.1705,VALID,140,VALID,0.0514606,
2009-01-14, 01:37:00,VALID,919.963,VALID,0,VALID,99.7777,VALID,-0.0849042,VALID,19.161,VALID,149,VALID,0.0163352,
2009-01-14, 01:38:00,VALID,919.938,VALID,0,VALID,99.7739,VALID,0,VALID,19.1565,VALID,140,VALID,0.0825639,
2009-01-14, 01:39:00,VALID,919.935,VALID,0,VALID,99.8006,VALID,0.0169808,VALID,19.1398,VALID,134,VALID,0.227679,
2009-01-14, 01:40:00,VALID,919.921,VALID,0,VALID,99.7459,VALID,0.0339617,VALID,19.1528,VALID,133,VALID,0.549107,
2009-01-14, 01:41:00,VALID,919.903,VALID,0,VALID,99.6824,VALID,0.0339617,VALID,19.1565,VALID,140,VALID,0,
2009-01-14, 01:42:00,VALID,919.885,VALID,0,VALID,99.6722,VALID,0.0339617,VALID,19.1528,VALID,142,VALID,0.0786966,
2009-01-14, 01:43:00,VALID,919.873,VALID,0,VALID,99.6531,VALID,0.0509425,VALID,19.1563,VALID,146,VALID,0.00497159,
2009-01-14, 01:44:00,VALID,919.846,VALID,0,VALID,99.5654,VALID,0.0339617,VALID,19.1561,VALID,126,VALID,0.00223214,
2009-01-14, 01:45:00,VALID,919.831,VALID,0,VALID,99.5323,VALID,0.0169808,VALID,19.1433,VALID,117,VALID,0.0273438,
2009-01-14, 01:46:00,VALID,919.805,VALID,0,VALID,99.5501,VALID,0.0169808,VALID,19.1403,VALID,118,VALID,0.033346,
2009-01-14, 01:47:00,VALID,919.801,VALID,0,VALID,99.573,VALID,0,VALID,19.1368,VALID,116,VALID,0.139863,
2009-01-14, 01:48:00,VALID,919.779,VALID,0,VALID,99.5183,VALID,0,VALID,19.1431,VALID,129,VALID,0.081577,
2009-01-14, 01:49:00,VALID,919.774,VALID,0,VALID,99.428,VALID,0,VALID,19.1338,VALID,111,VALID,0.0409226,
2009-01-14, 01:50:00,VALID,919.75,VALID,0,VALID,99.3784,VALID,-0.0169808,VALID,19.1079,VALID,110,VALID,0.216654,
2009-01-14, 01:51:00,VALID,919.74,VALID,0,VALID,99.4611,VALID,0.0169808,VALID,19.0849,VALID,104,VALID,0.340116,
2009-01-14, 01:52:00,VALID,919.711,VALID,0,VALID,99.6493,VALID,-0.0169808,VALID,19.0787,VALID,104,VALID,0.349507,
2009-01-14, 01:53:00,VALID,919.698,VALID,0,VALID,99.7091,VALID,-0.0679233,VALID,19.0926,VALID,106,VALID,0.216845,
2009-01-14, 01:54:00,VALID,919.683,VALID,0,VALID,99.5806,VALID,-0.0849042,VALID,19.0894,VALID,118,VALID,0.0579268,
2009-01-14, 01:55:00,VALID,919.671,VALID,0,VALID,99.5844,VALID,-0.101885,VALID,19.0861,VALID,142,VALID,0.585574,
2009-01-14, 01:56:00,VALID,919.659,VALID,0,VALID,99.5018,VALID,-0.0509425,VALID,19.1028,VALID,129,VALID,0.0558036,
2009-01-14, 01:57:00,VALID,919.647,VALID,0,VALID,99.3466,VALID,-0.0849042,VALID,19.0926,VALID,124,VALID,0.040483,
2009-01-14, 01:58:00,VALID,919.635,VALID,0,VALID,99.3161,VALID,-0.0849042,VALID,19.0472,VALID,116,VALID,0,
2009-01-14, 01:59:00,VALID,919.616,VALID,0,VALID,99.4738,VALID,-0.0849042,VALID,19.0183,VALID,126,VALID,0,
2009-01-14, 02:00:00,VALID,919.573,VALID,0,VALID,99.6353,VALID,-0.101885,VALID,19.0088,VALID,123,VALID,0.125558,
2009-01-14, 02:01:00,VALID,919.552,VALID,0,VALID,99.615,VALID,-0.0679233,VALID,18.9823,VALID,119,VALID,0,
2009-01-14, 02:02:00,VALID,919.528,VALID,0,VALID,99.6646,VALID,-0.0849042,VALID,18.9629,VALID,117,VALID,0,
2009-01-14, 02:03:00,VALID,919.516,VALID,0,VALID,99.7167,VALID,-0.0679233,VALID,18.9339,VALID,117,VALID,0,
2009-01-14, 02:04:00,VALID,919.515,VALID,0,VALID,99.8413,VALID,-0.0509425,VALID,18.9077,VALID,134,VALID,0,
2009-01-14, 02:05:00,VALID,919.523,VALID,0,VALID,99.8566,VALID,-0.0849042,VALID,18.8922,VALID,134,VALID,0,
2009-01-14, 02:06:00,VALID,919.509,VALID,0,VALID,99.9596,VALID,-0.0679233,VALID,18.8656,VALID,135,VALID,0,
2009-01-14, 02:07:00,VALID,919.476,VALID,0,VALID,99.999,VALID,-0.0679233,VALID,18.8496,VALID,135,VALID,0,
2009-01-14, 02:08:00,VALID,919.44,VALID,0,VALID,100,VALID,-0.101885,VALID,18.8493,VALID,142,VALID,0.256882,
2009-01-14, 02:09:00,VALID,919.411,VALID,0,VALID,100,VALID,-0.0849042,VALID,18.8591,VALID,158,VALID,0.0461483,
2009-01-14, 02:10:00,VALID,919.397,VALID,0,VALID,100,VALID,-0.0849042,VALID,18.8498,VALID,161,VALID,0,
2009-01-14, 02:11:00,VALID,919.371,VALID,0,VALID,99.9929,VALID,-0.0849042,VALID,18.8296,VALID,158,VALID,0,
2009-01-14, 02:12:00,VALID,919.359,VALID,0,VALID,100,VALID,-0.0679233,VALID,18.8299,VALID,162,VALID,0,
2009-01-14, 02:13:00,VALID,919.352,VALID,0,VALID,100,VALID,-0.0679233,VALID,18.8104,VALID,164,VALID,0,
2009-01-14, 02:14:00,VALID,919.353,VALID,0,VALID,100,VALID,-0.0509425,VALID,18.8074,VALID,174,VALID,0,
2009-01-14, 02:15:00,VALID,919.332,VALID,0,VALID,99.999,VALID,-0.0679233,VALID,18.8007,VALID,174,VALID,0,
2009-01-14, 02:16:00,VALID,919.308,VALID,0,VALID,100,VALID,-0.0849042,VALID,18.7777,VALID,174,VALID,0,
2009-01-14, 02:17:00,VALID,919.275,VALID,0,VALID,100,VALID,-0.0679233,VALID,18.7578,VALID,153,VALID,0.0317951,
2009-01-14, 02:18:00,VALID,919.246,VALID,0,VALID,100,VALID,-0.0509425,VALID,18.7618,VALID,146,VALID,0.043679,
2009-01-14, 02:19:00,VALID,919.218,VALID,0,VALID,100,VALID,-0.0679233,VALID,18.749,VALID,140,VALID,0.179688,
2009-01-14, 02:20:00,VALID,919.211,VALID,0,VALID,99.9952,VALID,-0.101885,VALID,18.7523,VALID,133,VALID,0.00304878,
2009-01-14, 02:21:00,VALID,919.175,VALID,0,VALID,100,VALID,-0.101885,VALID,18.7712,VALID,123,VALID,0.00669643,
2009-01-14, 02:22:00,VALID,919.172,VALID,0,VALID,100,VALID,-0.0509425,VALID,18.8072,VALID,132,VALID,0.0699219,
2009-01-14, 02:23:00,VALID,919.166,VALID,0,VALID,99.9527,VALID,-0.0849042,VALID,18.8174,VALID,136,VALID,0.0201672,
2009-01-14, 02:24:00,VALID,919.146,VALID,0,VALID,99.929,VALID,-0.118866,VALID,18.8141,VALID,146,VALID,0.122266,
2009-01-14, 02:25:00,VALID,919.13,VALID,0,VALID,99.929,VALID,-0.0509425,VALID,18.8169,VALID,138,VALID,0,
2009-01-14, 02:26:00,VALID,919.112,VALID,0,VALID,99.9926,VALID,-0.0679233,VALID,18.8299,VALID,122,VALID,0.094122,
2009-01-14, 02:27:00,VALID,919.092,VALID,0,VALID,99.9725,VALID,-0.0509425,VALID,18.8653,VALID,122,VALID,0.0543064,
2009-01-14, 02:28:00,VALID,919.088,VALID,0,VALID,99.868,VALID,-0.0679233,VALID,18.8725,VALID,132,VALID,0.00205592,
2009-01-14, 02:29:00,VALID,919.073,VALID,0,VALID,99.84,VALID,-0.0849042,VALID,18.882,VALID,122,VALID,0.00590278,
2009-01-14, 02:30:00,VALID,919.056,VALID,0,VALID,99.7714,VALID,-0.101885,VALID,18.885,VALID,120,VALID,0.0665015,
2009-01-14, 02:31:00,VALID,919.048,VALID,0,VALID,99.5972,VALID,-0.0849042,VALID,18.8855,VALID,115,VALID,0.053267,
2009-01-14, 02:32:00,VALID,919.039,VALID,0,VALID,99.5628,VALID,-0.101885,VALID,18.8623,VALID,118,VALID,0.00117188,
2009-01-14, 02:33:00,VALID,919.027,VALID,0,VALID,99.6251,VALID,-0.101885,VALID,18.8628,VALID,132,VALID,0.420573,
2009-01-14, 02:34:00,VALID,919.033,VALID,0,VALID,99.6582,VALID,-0.101885,VALID,18.8792,VALID,137,VALID,0.295277,
2009-01-14, 02:35:00,VALID,919.024,VALID,0,VALID,99.5577,VALID,-0.0849042,VALID,18.8853,VALID,131,VALID,0.170967,
2009-01-14, 02:36:00,VALID,919.016,VALID,0,VALID,99.5081,VALID,-0.0849042,VALID,18.8952,VALID,115,VALID,0.014881,
2009-01-14, 02:37:00,VALID,919.026,VALID,0,VALID,99.3619,VALID,-0.0509425,VALID,18.8686,VALID,112,VALID,0,
2009-01-14, 02:38:00,VALID,919.019,VALID,0,VALID,99.3352,VALID,0,VALID,18.8417,VALID,111,VALID,0,
2009-01-14, 02:39:00,VALID,918.998,VALID,0,VALID,99.3517,VALID,0.0169808,VALID,18.8062,VALID,101,VALID,0,
2009-01-14, 02:40:00,VALID,919.004,VALID,0,VALID,99.3301,VALID,0.0509425,VALID,18.7671,VALID,86,VALID,0,
2009-01-14, 02:41:00,VALID,918.992,VALID,0,VALID,99.4891,VALID,0.0169808,VALID,18.7119,VALID,80,VALID,0,
2009-01-14, 02:42:00,VALID,918.987,VALID,0,VALID,99.6302,VALID,0,VALID,18.6857,VALID,81,VALID,0,
2009-01-14, 02:43:00,VALID,918.969,VALID,0,VALID,99.8983,VALID,0.0169808,VALID,18.6927,VALID,91,VALID,0,
2009-01-14, 02:44:00,VALID,918.968,VALID,0,VALID,99.9817,VALID,0,VALID,18.7122,VALID,97,VALID,0,
2009-01-14, 02:45:00,VALID,918.964,VALID,0,VALID,99.9804,VALID,0,VALID,18.7254,VALID,95,VALID,0,
2009-01-14, 02:46:00,VALID,918.951,VALID,0,VALID,99.7955,VALID,0,VALID,18.6992,VALID,80,VALID,0,
2009-01-14, 02:47:00,VALID,918.956,VALID,0,VALID,99.8655,VALID,-0.0169808,VALID,18.683,VALID,78,VALID,0,
2009-01-14, 02:48:00,VALID,918.936,VALID,0,VALID,99.9456,VALID,-0.0339617,VALID,18.6737,VALID,78,VALID,0,
2009-01-14, 02:49:00,VALID,918.909,VALID,0,VALID,99.9929,VALID,0,VALID,18.6769,VALID,78,VALID,0,
2009-01-14, 02:50:00,VALID,918.887,VALID,0,VALID,99.9964,VALID,-0.0169808,VALID,18.6635,VALID,101,VALID,0,
2009-01-14, 02:51:00,VALID,918.876,VALID,0,VALID,100,VALID,0,VALID,18.6832,VALID,129,VALID,0,
2009-01-14, 02:52:00,VALID,918.873,VALID,0,VALID,100,VALID,-0.0339617,VALID,18.6929,VALID,108,VALID,0.196456,
2009-01-14, 02:53:00,VALID,918.877,VALID,0,VALID,99.8194,VALID,-0.101885,VALID,18.6781,VALID,103,VALID,0.0228795,
2009-01-14, 02:54:00,VALID,918.876,VALID,0,VALID,99.9227,VALID,-0.0679233,VALID,18.6712,VALID,116,VALID,0.00266768,
2009-01-14, 02:55:00,VALID,918.872,VALID,0,VALID,99.8693,VALID,-0.101885,VALID,18.6714,VALID,101,VALID,0,
2009-01-14, 02:56:00,VALID,918.875,VALID,0,VALID,99.9776,VALID,-0.0849042,VALID,18.6811,VALID,107,VALID,0,
2009-01-14, 02:57:00,VALID,918.872,VALID,0,VALID,100,VALID,-0.101885,VALID,18.727,VALID,111,VALID,0.0518293,
2009-01-14, 02:58:00,VALID,918.875,VALID,0,VALID,100,VALID,-0.101885,VALID,18.7979,VALID,116,VALID,0.013587,
2009-01-14, 02:59:00,VALID,918.877,VALID,0,VALID,99.9555,VALID,-0.101885,VALID,18.8438,VALID,117,VALID,0,
2009-01-14, 03:00:00,VALID,918.887,VALID,0,VALID,99.6798,VALID,-0.101885,VALID,18.8436,VALID,114,VALID,0,
2009-01-14, 03:01:00,VALID,918.883,VALID,0,VALID,99.6302,VALID,-0.101885,VALID,18.8206,VALID,116,VALID,0.0944767,
2009-01-14, 03:02:00,VALID,918.876,VALID,0,VALID,99.6455,VALID,-0.135847,VALID,18.8144,VALID,121,VALID,0,
2009-01-14, 03:03:00,VALID,918.85,VALID,0,VALID,99.6277,VALID,-0.135847,VALID,18.8014,VALID,124,VALID,0,
2009-01-14, 03:04:00,VALID,918.833,VALID,0,VALID,99.5819,VALID,-0.101885,VALID,18.7879,VALID,122,VALID,0.0833984,
2009-01-14, 03:05:00,VALID,918.82,VALID,0,VALID,99.6086,VALID,-0.101885,VALID,18.7917,VALID,118,VALID,0,
2009-01-14, 03:06:00,VALID,918.823,VALID,0,VALID,99.6722,VALID,-0.135847,VALID,18.7854,VALID,114,VALID,0.00130208,
2009-01-14, 03:07:00,VALID,918.799,VALID,0,VALID,99.6595,VALID,-0.101885,VALID,18.7592,VALID,103,VALID,0,
2009-01-14, 03:08:00,VALID,918.803,VALID,0,VALID,99.765,VALID,-0.0339617,VALID,18.7675,VALID,100,VALID,0.0830305,
2009-01-14, 03:09:00,VALID,918.804,VALID,0,VALID,99.6213,VALID,-0.0169808,VALID,18.7381,VALID,87,VALID,0.0336682,
2009-01-14, 03:10:00,VALID,918.799,VALID,0,VALID,99.8833,VALID,0.0169808,VALID,18.7381,VALID,78,VALID,0.0210938,
2009-01-14, 03:11:00,VALID,918.786,VALID,0,VALID,99.8095,VALID,0.0169808,VALID,18.7416,VALID,72,VALID,0,
2009-01-14, 03:12:00,VALID,918.784,VALID,0,VALID,99.9234,VALID,-0.0509425,VALID,18.7119,VALID,84,VALID,0,
2009-01-14, 03:13:00,VALID,918.785,VALID,0,VALID,100,VALID,0,VALID,18.7481,VALID,97,VALID,0,
2009-01-14, 03:14:00,VALID,918.795,VALID,0,VALID,100,VALID,-0.0169808,VALID,18.7578,VALID,100,VALID,0,
2009-01-14, 03:15:00,VALID,918.795,VALID,0,VALID,100,VALID,0,VALID,18.7905,VALID,102,VALID,0,
2009-01-14, 03:16:00,VALID,918.791,VALID,0,VALID,99.9608,VALID,0,VALID,18.774,VALID,97,VALID,0,
2009-01-14, 03:17:00,VALID,918.799,VALID,0,VALID,99.9669,VALID,0.0169808,VALID,18.7675,VALID,87,VALID,0,
2009-01-14, 03:18:00,VALID,918.783,VALID,0,VALID,100,VALID,0,VALID,18.7603,VALID,87,VALID,0,
2009-01-14, 03:19:00,VALID,918.778,VALID,0,VALID,100,VALID,0.0339617,VALID,18.7898,VALID,82,VALID,0.00130208,
2009-01-14, 03:20:00,VALID,918.763,VALID,0,VALID,100,VALID,0,VALID,18.8157,VALID,79,VALID,0,
2009-01-14, 03:21:00,VALID,918.751,VALID,0,VALID,100,VALID,0,VALID,18.8384,VALID,67,VALID,0.0674543,
2009-01-14, 03:22:00,VALID,918.743,VALID,0,VALID,100,VALID,-0.0169808,VALID,18.8449,VALID,79,VALID,0,
2009-01-14, 03:23:00,VALID,918.741,VALID,0,VALID,100,VALID,-0.0169808,VALID,18.8516,VALID,85,VALID,0.00109012,
2009-01-14, 03:24:00,VALID,918.725,VALID,0,VALID,100,VALID,0.0169808,VALID,18.8489,VALID,91,VALID,0,
2009-01-14, 03:25:00,VALID,918.718,VALID,0,VALID,100,VALID,-0.0169808,VALID,18.8319,VALID,58,VALID,0.00106534,
2009-01-14, 03:26:01,VALID,918.7,VALID,0,VALID,100,VALID,-0.0169808,VALID,18.8227,VALID,49,VALID,0,
2009-01-14, 03:27:00,VALID,918.682,VALID,0,VALID,100,VALID,0,VALID,18.8032,VALID,39,VALID,0.000679348,
2009-01-14, 03:28:01,VALID,918.667,VALID,0,VALID,100,VALID,-0.0169808,VALID,18.7803,VALID,51,VALID,0.000600962,
2009-01-14, 03:29:00,VALID,918.648,VALID,0,VALID,100,VALID,-0.0169808,VALID,18.7705,VALID,46,VALID,0,
2009-01-14, 03:30:00,VALID,918.645,VALID,0,VALID,100,VALID,0,VALID,18.7671,VALID,55,VALID,0,
2009-01-14, 03:31:00,VALID,918.635,VALID,0,VALID,100,VALID,0,VALID,18.7773,VALID,53,VALID,0,
2009-01-14, 03:32:01,VALID,918.621,VALID,0,VALID,100,VALID,0,VALID,18.777,VALID,53,VALID,0,
2009-01-14, 03:33:01,VALID,918.627,VALID,0,VALID,100,VALID,0.0169808,VALID,18.793,VALID,52,VALID,0,
2009-01-14, 03:34:00,VALID,918.622,VALID,0,VALID,100,VALID,0.0169808,VALID,18.8125,VALID,52,VALID,0,
2009-01-14, 03:35:00,VALID,918.621,VALID,0,VALID,100,VALID,-0.0169808,VALID,18.8157,VALID,52,VALID,0,
2009-01-14, 03:36:00,VALID,918.618,VALID,0,VALID,100,VALID,0,VALID,18.8227,VALID,52,VALID,0,
2009-01-14, 03:37:00,VALID,918.611,VALID,0,VALID,100,VALID,-0.0339617,VALID,18.8296,VALID,54,VALID,0,
2009-01-14, 03:38:01,VALID,918.617,VALID,0,VALID,100,VALID,-0.0849042,VALID,18.8266,VALID,54,VALID,0,
2009-01-14, 03:39:00,VALID,918.618,VALID,0,VALID,100,VALID,-0.101885,VALID,18.8234,VALID,54,VALID,0,